TimeCDT,TemperatureF,Dew PointF,Humidity,Sea Level PressureIn,VisibilityMPH,Wind Direction,Wind SpeedMPH,Gust SpeedMPH,PrecipitationIn,Events,Conditions,WindDirDegrees,DateUTC
12:53 AM,35.1,25.0,67,30.10,9.0,South,9.2,-,0.00,Snow,Light Snow,180,2012-10-08 05:53:00
1:53 AM,36.0,25.0,64,30.10,9.0,South,9.2,-,0.00,Snow,Light Snow,190,2012-10-08 06:53:00
2:53 AM,34.0,25.0,70,30.08,9.0,South,8.1,-,0.00,Snow,Light Snow,190,2012-10-08 07:53:00
3:53 AM,35.1,26.1,70,30.07,9.0,SSW,8.1,-,0.00,Snow,Light Snow,200,2012-10-08 08:53:00
4:53 AM,36.0,26.1,67,30.07,9.0,South,10.4,-,0.00,Snow,Light Snow,190,2012-10-08 09:53:00
5:53 AM,34.0,26.1,73,30.07,9.0,South,9.2,-,0.00,Snow,Light Snow,190,2012-10-08 10:53:00
6:53 AM,34.0,27.0,75,30.07,9.0,South,9.2,-,0.00,Snow,Light Snow,190,2012-10-08 11:53:00
7:53 AM,36.0,28.0,73,30.08,9.0,South,11.5,-,0.00,Snow,Light Snow,190,2012-10-08 12:53:00
8:53 AM,42.1,30.0,62,30.07,10.0,SSW,12.7,-,0.00,,Clear,200,2012-10-08 13:53:00
9:53 AM,50.0,30.9,48,30.06,10.0,SSW,15.0,23.0,N/A,,Clear,200,2012-10-08 14:53:00
10:53 AM,55.0,32.0,42,30.05,10.0,SSW,16.1,24.2,N/A,,Clear,200,2012-10-08 15:53:00
11:53 AM,59.0,30.9,35,30.02,10.0,SSW,23.0,29.9,N/A,,Clear,210,2012-10-08 16:53:00
12:53 PM,61.0,32.0,34,30.00,10.0,SSW,20.7,27.6,N/A,,Clear,210,2012-10-08 17:53:00
1:53 PM,63.0,30.9,30,29.96,10.0,SSW,17.3,31.1,N/A,,Clear,200,2012-10-08 18:53:00
2:53 PM,64.0,30.0,28,29.94,10.0,SSW,26.5,32.2,N/A,,Clear,200,2012-10-08 19:53:00
3:53 PM,63.0,30.0,29,29.93,10.0,SSW,21.9,31.1,N/A,,Clear,200,2012-10-08 20:53:00
4:53 PM,63.0,30.9,30,29.91,10.0,SSW,16.1,27.6,N/A,,Clear,210,2012-10-08 21:53:00
5:53 PM,61.0,32.0,34,29.91,10.0,SSW,15.0,21.9,N/A,,Clear,200,2012-10-08 22:53:00
6:53 PM,57.9,32.0,37,29.91,10.0,SSW,15.0,23.0,N/A,,Clear,200,2012-10-08 23:53:00
7:53 PM,55.0,32.0,42,29.93,10.0,South,12.7,21.9,N/A,,Clear,190,2012-10-09 00:53:00
8:53 PM,53.1,33.1,47,29.92,10.0,South,16.1,-,N/A,,Clear,180,2012-10-09 01:53:00
9:53 PM,51.1,33.1,50,29.93,10.0,South,12.7,-,N/A,,Clear,180,2012-10-09 02:53:00
10:53 PM,51.1,33.1,50,29.91,10.0,South,16.1,-,N/A,,Clear,190,2012-10-09 03:53:00
11:53 PM,51.8,33.8,50,29.90,10.0,SSW,15.0,-,N/A,,Clear,200,2012-10-09 04:53:00